TDRS 8

Last updated on Sat Feb 08 2025 00:02:35 GMT+0000 (Coordinated Universal Time)

1 26388U 00034A 25038.72214317 .00000084 00000+0 00000+0 0 9999 2 26388 11.9065 35.3512 0006974 246.2579 308.7569 1.00270654 90216
UTC large
Height (km)
Speed (km/s)
/
Latitude / Longitude
Inclination (degrees)
Orbital Period (minutes)
Azimuth
Elevation
Range (km)
Doppler Factor

Next 0 passes for location: London (51.5072 / 0.1276)

Sorry there are no passes over London.